Regional Weather Roundup
Issued by NWS Upton, NY

Home | Current Version | Previous Version | Text Only | Print | Product List | Glossary On
Versions: 1 2 3 4 5 6 7 8 9 10 11 12 13 14 15 16 17 18 19 20 21 22 23 24 25 26 27 28 29 30 31 32 33 34 35 36 37 38 39 40 41 42 43 44 45 46 47 48 49 50
000
ASUS41 KOKX 280008
RWROKX

REGIONAL WEATHER ROUNDUP
NATIONAL WEATHER SERVICE NEW YORK NY
800 PM EDT TUE SEP 27 2016

NOTE: "FAIR" INDICATES FEW OR NO CLOUDS BELOW 12,000 FEET WITH NO
SIGNIFICANT WEATHER AND/OR OBSTRUCTIONS TO VISIBILITY.

NYZ071-072-176-178-NJZ106-104-280100-
NEW YORK CITY METRO AREA

CITY           SKY/WX    TMP DP  RH WIND       PRES   REMARKS
Central Park   CLEAR     67  61  81 VRB5      29.96R
LaGuardia APRT PTCLDY    70  62  76 S7        29.92R
Kennedy INTL   PTCLDY    68  62  81 SE5       29.94R
Newark/Liberty PTCLDY    70  61  73 CALM      29.92R
Bronx Bot Gard   N/A     66  59  77 SE5       29.95R
Wall St Helipt CLEAR     70  64  83 CALM      29.94R
Teterboro      CLEAR     69  56  62 SW3       29.92R
$$

NYZ177-179-078>081-280100-
LONG ISLAND NEW YORK

CITY           SKY/WX    TMP DP  RH WIND       PRES   REMARKS
Farmingdale    CLEAR     67  61  81 SW6       29.94R
MacArthur/ISP  PTCLDY    66  61  84 CALM      29.93R
Shirley        PTCLDY    62  60  93 CALM      29.94R
Riverhead      NOT AVBL
Westhampton    MOCLDY    63  61  93 CALM      29.95R
Southampton      N/A     68  64  88 SW3       29.90R
Bridgehampton    N/A    N/A N/A N/A CALM      29.80R
East Hampton   CLOUDY    63  62  96 CALM      29.94R
Montauk          N/A     65  64  97 CALM      29.96R
$$

NYZ052-065-067-280100-
HUDSON VALLEY

CITY           SKY/WX    TMP DP  RH WIND       PRES   REMARKS
White Plains   CLEAR     62  58  86 CALM      29.94R
Newburgh       CLEAR     63  55  77 SW8       29.93R
Montgomery     CLEAR     57  53  86 CALM      29.92R
Poughkeepsie   CLEAR     58  55  90 CALM      29.92R
Albany         PTCLDY    59  50  72 CALM      29.92R
$$

NJZ001-105-106-008-010-013-015-019>022-104-280100-
NEW JERSEY

CITY           SKY/WX    TMP DP  RH WIND       PRES   REMARKS
Newark/Liberty PTCLDY    70  61  73 CALM      29.92R
Teterboro      CLEAR     69  56  62 SW3       29.92R
Caldwell       CLEAR     64  54  69 CALM      29.93R
Morristown     CLEAR     57  54  88 CALM      29.93R
Somerville     CLEAR     59  52  77 CALM      29.91R
Linden         NOT AVBL
Sussex         CLEAR     57  54  89 CALM      29.94R
Abdover          N/A     55  52  89 CALM      29.94R
Trenton        CLEAR     63  52  67 N5        29.92R
Millville      CLOUDY    62  62 100 CALM      29.94R
Atlantic City  MOCLDY    66  61  84 CALM      29.93S
Wrightstown    CLEAR     65  62  92 S5        29.91R
Toms River     CLEAR     64  62  93 CALM      29.94R
Belmar         PTCLDY    66  63  90 CALM      29.94R
$$

PAZ047>061-062-071-280100-
EASTERN PENNSYLVANIA

CITY           SKY/WX    TMP DP  RH WIND       PRES   REMARKS
Philadelphia   CLEAR     69  57  65 S7        29.93R
Allentown      CLEAR     63  47  55 CALM      29.93R
Scranton       CLEAR     62  46  55 VRB3      29.93R
$$

CTZ002-004>006-009-010-012-RIZ004-006-007-MAZ004-011-015-280100-
SOUTHERN NEW ENGLAND
 IN CT

CITY           SKY/WX    TMP DP  RH WIND       PRES   REMARKS
Bradley INTL   PTCLDY    64  57  78 CALM      29.93R
Hartford       PTCLDY    65  61  87 S5        29.93R
Danbury        CLEAR     56  54  93 W3        29.95R
Wtrbury/Oxford PTCLDY   N/A N/A N/A S5        29.96R
Bridgeport     MOCLDY    70  62  76 S7        29.93R
Meriden        CLEAR     63  59  87 CALM      29.94R
New Haven      PTCLDY    67  62  84 S7        29.94R
Chester        FAIR      63  61  94 CALM      29.95R
Groton         PTCLDY    65  61  87 CALM      29.94R
Wilimantic     PTCLDY    65  63  93 CALM      29.95R

 IN RI

CITY           SKY/WX    TMP DP  RH WIND       PRES   REMARKS
Providence     MOCLDY    64  60  87 S3        29.95R
Block Island   CLOUDY    65  63  93 S5        29.96R
Westerly       CLOUDY    63  59  87 CALM      29.95R
 IN MA

CITY           SKY/WX    TMP DP  RH WIND       PRES   REMARKS
Boston         CLOUDY    64  59  83 SE8       29.96R
Worcester      MOCLDY    60  54  80 CALM      29.96R
Westfield      CLEAR     59  57  93 N3        29.94R
Provincetown   PTCLDY    58  57  97 SE3       29.97R
Nantucket      CLOUDY    66  64  93 S5        29.95R
$$

ANZ330-335-338-340-345-350-353-355-280100-
COASTAL MARINE OBSERVATIONS


STATION/POSITION TIME  SKY/WX   TEMP    WIND        PRES    VSBY  WAVE
                                AIR SEA DIR/SP/G                  HT/PER
                 (UTC)          (F)     (DEG/KT/KT) (MB)    (MI)  (FT/S)
NY HARB ENTRANCE 2350            70 71  210/ 10/ 12 1013.3          4/ 7
20S FIRE ISLAND  2250            68 70  220/  8/  8 1013.0          4/ 7
GREAT SOUTH BAY  2330            69 70  210/  8/  8   N/A
23 SSW MONTAUK P 2250            67 68  210/  6/  6 1013.6          5/ 7
15 E BARNEGAT LI 2330               71                N/A           4/ 7
HUDSON CANYON    2250            69 69              1013.5          6/ 7
KINGS POINT      2330            69 73              1013.0
EXECUTION ROCKS  2345            70     180/ 10/ 12   N/A
CENTRAL LI SOUND 2315            69 72  200/ 10/ 12   N/A           1
EASTERN LI SOUND NOT AVBL
ROBBINS REEF     2330            70     150/ 10/ 11 1013.3
$$


>>>>>>>>>>>>>>>>>>>>>>>>>>>> KEY <<<<<<<<<<<<<<<<<<<<<<<<<<<
>                                                          <
>     SKY/WX - Sky Condition/Present Weather               <
>     TMP    - Temperature in Fahrenheit                   <
>     DP     - Dew Point in Fahrenheit                     <
>     RH     - Relative Humidity in Percent                <
>     WIND   - Direction (from) and Speed in MPH           <
>     PRES   - Mean Sea Level Pressure (inches of Hg)      <
>     WCI    - Wind Chill Index                            <
>     VSB    - VISIBILITY IN MILES                         <
>     HX     - HEAT INDEX                                  <
>     TC     - TEMPERATURE IN CELSIUS                      <
>     VRB    - VARIABLE WIND DIRECTION                     <
>                                                          <
>>>>>>>>>>>>>>>>>>>>>>>>>>>> KEY <<<<<<<<<<<<<<<<<<<<<<<<<<<




USA.gov is the U.S. government's official web portal to all federal, state and local government web resources and services.